[Iaude] MPEC G210: 2024 GC6 [a=2.10,e=0.56,i=12.4,H=25.7]
    mpec at cfa.harvard.edu 
    mpec at cfa.harvard.edu
       
    Sun Apr 14 19:16:07 EDT 2024
    
    
  
M.P.E.C. 2024-G210                               Issued 2024 April 14, 23:14 UT
     The Minor Planet Electronic Circulars contain information on unusual
         minor planets, routine data on comets and natural satellites,
         and occasional editorial announcements.  They are published
    on behalf of Division F of the International Astronomical Union by the
          Minor Planet Center, Smithsonian Astrophysical Observatory,
                          Cambridge, MA 02138, U.S.A.
			  
             Prepared using the Tamkin Foundation Computer Network
                              MPC at CFA.HARVARD.EDU
            URL https://www.minorplanetcenter.net/    ISSN 1523-6714
                                    2024 GC6                                    
Observations:
     K24G06C*1C2024 04 14.30352812 34 34.540-09 20 42.79         19.57GVEG210703
     K24G06C 1C2024 04 14.30578912 34 39.623-09 19 58.48         18.95GVEG210703
     K24G06C 1C2024 04 14.30804712 34 44.713-09 19 12.11         18.40GVEG210703
     K24G06C 1C2024 04 14.31030512 34 49.818-09 18 28.04         19.10GVEG210703
     K24G06C mC2024 04 14.32296112 35 18.485-09 14 15.18         18.52GVEG210I52
     K24G06C mC2024 04 14.32315412 35 18.895-09 14 11.36         18.69GVEG210I52
     K24G06C mC2024 04 14.32334712 35 19.345-09 14 07.26         18.68GVEG210I52
     K24G06C mC2024 04 14.32354712 35 19.792-09 14 03.34         18.67GVEG210I52
     K24G06C mC2024 04 14.40606312 38 24.504-08 46 48.58         18.70GVEG210I52
     K24G06C mC2024 04 14.40628212 38 24.965-08 46 44.11         18.81GVEG210I52
     K24G06C mC2024 04 14.40650712 38 25.465-08 46 39.97         18.65GVEG210I52
     K24G06C mC2024 04 14.40672312 38 25.951-08 46 35.58         19.03GVEG210I52
     K24G06C KB2024 04 14.46061 12 40 51.55 -08 29 24.0          18.5 GXEG210Q06
     K24G06C KB2024 04 14.46539 12 41 01.97 -08 27 53.5          19.2 GXEG210Q06
     K24G06C KB2024 04 14.47018 12 41 12.35 -08 26 22.3          19.1 GXEG210Q06
     K24G06C KC2024 04 14.57399 12 44 48.53 -07 48 34.2          19.0 VqEG210E23
     K24G06C KC2024 04 14.58510 12 45 11.56 -07 45 07.1          18.9 VqEG210E23
     K24G06C KC2024 04 14.59621 12 45 34.47 -07 41 39.6          18.8 VqEG210E23
     K24G06C KC2024 04 14.76581 12 51 48.93 -06 51 00.0          18.6 GVEG210L29
     K24G06C KC2024 04 14.77003 12 51 57.26 -06 49 46.2          18.7 GVEG210L29
     K24G06C KC2024 04 14.77424 12 52 05.56 -06 48 32.3          18.7 GVEG210L29
     K24G06C KC2024 04 14.77845 12 52 13.83 -06 47 18.4          18.6 GVEG210L29
     K24G06C KC2024 04 14.78268 12 52 22.15 -06 46 04.7          18.7 GVEG210L29
     K24G06C KC2024 04 14.82612 12 53 45.56 -06 38 12.8          19.0 GXEG210K83
     K24G06C KC2024 04 14.83223 12 53 57.40 -06 36 27.0          18.9 GXEG210K83
     K24G06C KC2024 04 14.83262312 53 57.40 -06 36 26.8          19.2 GXEG210595
     K24G06C KC2024 04 14.83334 12 53 59.45 -06 35 57.9          19.1 GVEG210C82
     K24G06C KC2024 04 14.83800 12 54 08.31 -06 34 38.4                VEG210C82
     K24G06C KC2024 04 14.83832 12 54 09.14 -06 34 41.4          19.2 GXEG210K83
     K24G06C KB2024 04 14.84400 12 54 20.35 -06 33 06.6          17.2 GXEG210G15
     K24G06C KC2024 04 14.84463512 54 20.56 -06 32 59.3          19.5 GXEG210595
     K24G06C KB2024 04 14.85365 12 54 38.85 -06 30 19.1          18.6 GXEG210G15
     K24G06C KC2024 04 14.86741312 55 04.93 -06 26 20.2          18.9 GVEG210104
     K24G06C KC2024 04 14.87146412 55 12.62 -06 25 10.6          18.4 GVEG210104
     K24G06C KC2024 04 14.87340012 55 16.351-06 24 38.31         18.7 GVEG210D63
     K24G06C KC2024 04 14.87551512 55 20.33 -06 24 00.8          18.4 GVEG210104
     K24G06C KC2024 04 14.88100112 55 30.778-06 22 27.20         19.4 GVEG210D63
     K24G06C KC2024 04 14.88754612 55 43.155-06 20 34.72         19.0 GVEG210D63
     K24G06C KB2024 04 14.88881012 55 47.70 -06 20 13.2          18.4 GXEG210I93
     K24G06C KB2024 04 14.89271612 55 55.05 -06 19 05.8          19.0 GXEG210I93
     K24G06C KB2024 04 14.89652012 56 02.24 -06 18 01.2          18.4 GXEG210I93
     K24G06C KB2024 04 14.92033 12 56 43.82 -06 11 20.7          18.3 RZEG210106
     K24G06C KB2024 04 14.92283 12 56 48.50 -06 10 38.7          18.2 RZEG210106
     K24G06C KB2024 04 14.92533 12 56 53.17 -06 09 55.4                ZEG210106
     K24G06C KB2024 04 14.92784 12 56 57.86 -06 09 12.9          18.0 RZEG210106
     K24G06C KC2024 04 14.93497512 57 11.11 -06 07 10.3          18.6 GVEG210L01
     K24G06C KC2024 04 14.93645512 57 13.87 -06 06 45.3          18.6 GVEG210L01
     K24G06C KC2024 04 14.94591812 57 31.37 -06 04 05.2          18.5 GVEG210L01
Observer details:
104 San Marcello Pistoiese.  Observers P. Bacci, M. Maestripieri.  Measurers
    P. Bacci, L. Tesi, G. Fagioli.  0.60-m F4 Reflector + CCD.
106 Crni Vrh.  Observer H. Mikuz.  0.60-m f/3.3 reflector + CMO.
595 Farra d'Isonzo.  Observer E. Pettarin.  0.61-m f/4.5 reflector + CCD.
703 Catalina Sky Survey.  Observer R. A. Kowalski.  Measurers T. Beuden, V. F.
    Carvajal, D. Fay, J. B. Fazekas, D. C. Fuls, A. R. Gibbs, A. D. Grauer, H.
    Groeller, J. K. Hogan, R. A. Kowalski, S. M. Larson, G. J. Leonard, D.
    Rankin, R. L. Seaman, F. C. Shelly, K. W. Wierzchos.  0.68-m Schmidt + 10K
    CCD.
C82 Osservatorio Astronomico Nastro Verde, Sorrento.  Observer N. Ruocco.
    0.35-m f/6.3  Schmidt-Cassegrain + CCD.
D63 G. Pascoli Observatory, Castelvecchio Pascoli (since June 2023).  Observer
    R. Bacci.  0.41-m f/3.75 Reflector + CCD.
E23 Arcadia.  Observer A. Hidas.  0.35-m f/1.9 reflector + CCD.
G15 Magroforte Observatory, Alessandria.  Observer A. De Pieri.  0.23-m f/6.7
    SC + CMO.
I52 Steward Observatory, Mt. Lemmon Station.  Observer D. Rankin.  Measurers
    T. Beuden, V. F. Carvajal, D. Fay, J. B. Fazekas, D. C. Fuls, A. R. Gibbs,
    A. D. Grauer, H. Groeller, J. K. Hogan, R. A. Kowalski, S. M. Larson, G.
    J. Leonard, D. Rankin, R. L. Seaman, F. C. Shelly, K. W. Wierzchos.  1.0-m
    prime focus + CCD.
I93 St Pardon de Conques.  Observer F. Losse.  0.40-m f/3.7 reflector + CCD.
K83 Beppe Forti Astronomical Observatory, Montelupo.  Observers M. Tombelli,
    F. Cheli, A. Squilloni, M. Iozzi.  Measurers M. Tombelli, F. Bernardi, F.
    Cheli, M. Iozzi, A. Squilloni.  0.40-m f/8 Ritchey-Chretien + CCD.
L01 Visnjan Observatory, Tican.  Observer K. Korlevic.  1.0-m f/2.9 reflector
    + CCD.
L29 Drebach-South Observatory, Windhoek.  Observer G. Lehmann.  0.4-m f/3.6
    reflector + CCD.
Q06 Tarui Observatory, Tarui.  Observer H. Watanabe.  0.35-m f/1.9 Schmidt-
    Cassegrain + CMO.
Orbital elements:
2024 GC6                                                 Earth MOID = 0.0209 AU
Epoch 2024 Mar. 31.0 TT = JDT 2460400.5                 Veres                   
M   6.48522              (2000.0)            P               Q                  
n   0.32279499     Peri.  315.30738     -0.93354827     -0.34699845             
a   2.1046741      Node   204.81123     +0.35834267     -0.90962929             
e   0.5588635      Incl.   12.36893     -0.00884055     -0.22840015             
P   3.05           H   25.76          G   0.15           U   7                  
Residuals in seconds of arc
240414 703  0.7+  0.7+    240414 E23  0.2-  0.6-    240414 104  0.2+  0.1+
240414 703  0.1+  0.3-    240414 E23  0.8-  0.2+    240414 104  0.0   0.0
240414 703  0.2-  0.8+    240414 L29  1.1+  0.1+    240414 D63  0.3-  1.0-
240414 703  0.2-  0.3-    240414 L29  0.8+  0.2-    240414 104  0.2+  0.2+
240414 I52  0.6+  0.3-    240414 L29  0.7+  0.0     240414 D63  0.0   0.4-
240414 I52  0.2+  0.4-    240414 L29  0.4+  0.2+    240414 D63  0.0   0.1-
240414 I52  0.5+  0.1-    240414 L29  0.6+  0.2-    240414 I93  0.7+  0.5-
240414 I52  0.4+  0.2-    240414 K83  0.2+  0.3+    240414 I93  0.0   0.2+
240414 I52  0.6+  0.4-    240414 K83  0.2+  0.1+    240414 I93  0.1+  0.2-
240414 I52  0.2+  0.3-    240414 595  0.1-  0.6+    240414 106  0.1+  0.2+
240414 I52  0.2+  0.6-    240414 C82  1.9+  0.8+    240414 106  0.4+  0.3-
240414 I52  0.3+  0.4-    240414 C82  0.2+  0.5-    240414 106  0.5+  0.5+
240414 Q06  2.3-  1.6+    240414 K83  0.2-  0.1+    240414 106  0.7+  0.4+
240414 Q06  2.1-  1.0+    240414 G15  0.6+  0.7-    240414 L01  0.6-  0.0
240414 Q06  2.4-  1.0+    240414 595  0.3-  0.1-    240414 L01  0.4-  0.0
240414 E23  0.4-  0.5-    240414 G15  0.1-  0.1+    240414 L01  0.9-  0.1-
Ephemeris:
2024 GC6                 a,e,i = 2.10, 0.56, 12                  q = 0.9284
Date    TT    R. A. (2000) Decl.     Delta      r    Elong.  Phase     V
2024 03 15    03 59 23.7 -19 29 11   0.1992  0.9301    65.6   103.2    25.9
...
2024 03 30    04 38 37.6 -23 06 29   0.09577 0.9624    65.2   109.6    24.7
...
2024 04 07    06 05 20.1 -28 56 55   0.04275 0.9950    80.7    96.9    22.4
...
2024 04 13    11 31 23.6 -17 28 11   0.02562 1.0252   150.9    28.4    19.1
2024 04 14    12 22 02.2 -11 02 14   0.02883 1.0306   163.3    16.3    19.0
2024 04 15    12 59 14.0 -05 45 47   0.03337 1.0362   170.7     9.0    19.1
...
2024 04 21    14 30 43.8 +07 39 11   0.07150 1.0718   158.6    20.0    21.2
...
2024 04 29    15 01 04.8 +11 28 51   0.1301  1.1242   152.6    24.3    22.7
...
2024 05 14    15 15 53.4 +11 52 04   0.2507  1.2332   149.5    24.6    24.4
M. P. C. Staff               (C) Copyright 2024 MPC           M.P.E.C. 2024-G210
    
    
More information about the Iaude
mailing list